Location: Asheville, NC
(35.6000°N, 82.5500°W)
Time: 14:36:21
(UTC-05:00)

Vanguard 2 Rocket - Pass Details

Date: 10 December 2017
Orbit: 556 x 3326 km, 32.9° (Epoch: 16 January)

Event Time Altitude Azimuth Distance (km) Brightness Sun altitude
Rises 22:37:03 0° 264° (W) 6,063 11.4 -63.7°
Reaches altitude 10° 22:40:32 10° 264° (W) 5,338 11.0 -64.4°
Enters shadow 22:47:40 36° 262° (W) 4,068 10.1 -65.7°
